[[{"header":{"parameterUnit":"m.s-1","parameterCategory":1,"la1":30.2991,"la2":30.254,"lo1":-89.0895,"lo2":-89.0444,"dy":0.0017,"dx":0.0017,"nx":28,"ny":28,"refTime":"2025-04-23T03:00:00:Z","depth":0,"parameterNumber":2,"parameterNumberName":"U-component_of_WINDS"},"data":[0,0,0,0,0,0,0,0,0,0,0,0,0,0,0,0,0,0,0,0,0,0,0,0,0,0,0,0,0,0,0,0,0,0,0,0,0,0,0,0,0,0,0,0,0,0,0,0,0,0,0,0,0,0,0,0,0,0,-1.9867,-1.9866,0,-1.9808,-1.9807,-1.9806,-1.973,-1.9729,-1.9728,-1.9726,-1.9665,-1.9664,-1.9664,0,0,0,0,0,0,0,0,0,0,0,0,0,-1.9915,-1.9915,-1.9867,-1.9866,-1.9866,-1.9808,-1.9807,-1.9806,-1.973,-1.9729,-1.9727,-1.9726,-1.9665,-1.9664,-1.9664,0,0,0,0,0,0,0,0,0,0,0,0,0,-1.9879,-1.9915,-1.9867,-1.9821,-1.9816,-1.9808,-1.9807,-1.9806,-1.9731,-1.9729,-1.9727,-1.9725,-1.9665,-1.9664,-1.9664,-1.9696,0,0,-1.9661,-1.9661,0,0,0,0,0,0,0,0,-1.9881,-1.9877,-1.9828,-1.9824,-1.9819,-1.9774,-1.9801,-1.9769,-1.9731,-1.9763,-1.9726,-1.9724,-1.9703,-1.9699,-1.9692,-1.9693,-1.9691,-1.9661,-1.9661,-1.9661,-1.966,0,0,0,0,0,0,0,-1.9884,-1.9879,-1.9844,-1.9828,-1.9822,-1.9803,-1.9796,-1.9795,-1.9744,-1.976,-1.9754,-1.9748,-1.97,-1.9693,-1.969,-1.969,-1.9661,-1.9661,-1.966,-1.966,-1.9716,-1.9718,0,0,0,0,0,0,-1.9893,-1.9882,-1.9845,-1.9842,-1.9846,-1.9804,-1.9796,-1.979,-1.9744,-1.9735,-1.975,-1.9745,-1.9695,-1.9691,-1.9687,-1.9722,-1.9661,-1.966,-1.966,-1.9714,-1.9717,-1.9719,0,0,0,0,0,0,-1.9895,-1.9891,-1.9848,-1.986,-1.9853,-1.9805,-1.98,-1.979,-1.9783,-1.9736,-1.9727,-1.9752,-1.9693,-1.9688,-1.9695,-1.9719,-1.966,-1.9659,-1.9712,-1.9715,-1.9718,-1.9793,0,0,0,0,0,0,-1.9896,-1.9892,-1.9903,-1.9861,-1.9853,-1.9857,-1.9801,-1.979,-1.9782,-1.9775,-1.9736,-1.9727,-1.9691,-1.9696,-1.9694,-1.9717,-1.9658,-1.971,-1.9713,-1.9717,-1.9788,-1.9798,-1.9807,0,0,0,0,0,-1.9898,-1.9927,-1.9904,-1.99,-1.9867,-1.9858,-1.9853,-1.9812,-1.9784,-1.9796,-1.9766,-1.9729,-1.9717,-1.9698,-1.9694,-1.9718,-1.9708,-1.9712,-1.9716,-1.9784,-1.9796,-1.9807,0,0,0,0,0,0,-1.9972,-1.992,-1.9895,-1.991,-1.9889,-1.9845,-1.9858,-1.9826,-1.9812,-1.9806,-1.9754,-1.9746,-1.9759,-1.9739,-1.9718,-1.9747,-1.9707,-1.9711,-1.976,-1.9771,-1.978,-1.9784,-1.9658,0,0,0,0,0,-1.999,-1.9988,-1.9942,-1.9961,-1.9951,-1.9907,-1.9902,-1.9872,-1.9847,-1.9838,-1.9808,-1.9787,-1.9778,-1.9773,-1.9763,-1.9786,-1.9776,-1.98,-1.9809,-1.9817,-1.9821,-1.9832,-1.9842,-1.9733,-1.9733,-1.9733,0,0,-2.0028,-1.9999,-2.0,-1.9975,-1.9955,-1.9953,-1.99,-1.99,-1.9899,-1.9838,-1.9842,-1.9821,-1.9793,-1.9808,-1.9813,-1.9791,-1.9849,-1.9823,-1.9829,-1.9829,-1.9837,-1.9848,-1.9857,-1.9736,-1.9735,-1.9735,0,0,-2.0095,-2.0073,-2.0086,-2.0067,-2.0038,-2.0009,-2.0012,-1.9973,-1.9957,-1.996,-1.9915,-1.9913,-1.9899,-1.9881,-1.987,-1.9933,-1.9898,-1.9931,-1.9979,-1.9991,-1.9999,-2.0007,-2.0029,-2.0038,-1.9935,-1.9936,-1.9936,0,-2.0145,-2.0141,-2.0097,-2.01,-2.009,-2.0036,-2.0049,-2.0033,-2.0003,-1.9997,-1.9974,-1.9956,-1.9934,-1.9944,-1.996,-1.9953,-1.9955,-1.9935,-2.0002,-2.0009,-2.0015,-2.0036,-2.0044,-1.994,-1.9939,-1.9939,-1.9938,0,-2.0204,-2.0202,-2.0216,-2.0188,-2.018,-2.0188,-2.0146,-2.0143,-2.0114,-2.0087,-2.0093,-2.0064,-2.0047,-2.0048,-2.0019,-2.0054,-2.0042,-2.0011,-1.9969,-2.003,-2.0049,-2.0056,-1.9946,-1.9944,-1.9943,-1.9942,0,0,-2.0314,-2.0263,-2.0268,-2.0255,-2.022,-2.0218,-2.0225,-2.0208,-2.0207,-2.0188,-2.0192,-2.0183,-2.0155,-2.0143,-2.0112,-2.0122,-2.0174,-2.009,-2.0088,-2.0106,-2.0211,-2.0234,-2.0244,-2.0151,-2.0153,-2.0154,-2.0213,0,-2.0374,-2.0382,-2.0343,-2.0361,-2.0359,-2.0308,-2.0314,-2.0293,-2.0269,-2.0264,-2.0237,-2.0231,-2.0194,-2.0187,-2.0195,-2.0166,-2.0194,-2.0161,-2.0154,-2.0155,-2.0162,-2.0253,-2.0277,-2.0335,-2.022,-2.0221,-2.0222,0,-2.0445,-2.043,-2.0448,-2.0413,-2.0411,-2.0416,-2.0399,-2.0395,-2.0371,-2.0352,-2.034,-2.0305,-2.0309,-2.0271,-2.0276,-2.0255,-2.025,-2.0236,-2.0237,-2.0234,-2.0192,-2.0253,-2.0352,-2.0361,-2.0233,-2.0232,-2.0232,0,-2.0523,-2.0508,-2.0517,-2.0508,-2.0467,-2.0472,-2.0456,-2.043,-2.0423,-2.0408,-2.0403,-2.0389,-2.0381,-2.0372,-2.0334,-2.0309,-2.0344,-2.0302,-2.0329,-2.033,-2.0337,-2.0337,-2.0437,-2.0335,-2.0335,-2.0335,-2.0335,0,-2.0594,-2.0607,-2.0552,-2.0558,-2.0571,-2.0527,-2.0541,-2.052,-2.0497,-2.0498,-2.0454,-2.0455,-2.0406,-2.0402,-2.0373,-2.0382,-2.0379,-2.0364,-2.0356,-2.0368,-2.0369,-2.0363,-2.0358,-2.0337,-2.0337,-2.0336,-2.0336,0,-2.0683,-2.0647,-2.0654,-2.0615,-2.0606,-2.0617,-2.0584,-2.0588,-2.0561,-2.0563,-2.0561,-2.0519,-2.0513,-2.0475,-2.0459,-2.0439,-2.0459,-2.0443,-2.0467,-2.0462,-2.049,-2.0488,-2.0589,-2.06,-2.0492,-2.0493,-2.0494,0,-2.0731,-2.0739,-2.0702,-2.07,-2.0685,-2.0681,-2.0674,-2.0632,-2.0627,-2.0601,-2.0608,-2.0598,-2.0587,-2.0579,-2.0548,-2.0536,-2.0519,-2.0556,-2.0517,-2.0529,-2.052,-2.0519,-2.052,-2.0564,-2.0565,-2.0566,-2.0567,0,-2.0818,-2.08,-2.0792,-2.0778,-2.0771,-2.0758,-2.0743,-2.0743,-2.0696,-2.0693,-2.0686,-2.0678,-2.0662,-2.0653,-2.0636,-2.0619,-2.0586,-2.058,-2.0585,-2.0597,-2.061,-2.0603,-2.0489,-2.0577,-2.0576,-2.0575,-2.0575,-2.0575,-2.0887,-2.0893,-2.0868,-2.0861,-2.0845,-2.0832,-2.0833,-2.0808,-2.0801,-2.0785,-2.0761,-2.0758,-2.0734,-2.0708,-2.0694,-2.0691,-2.0671,-2.0679,-2.0681,-2.0684,-2.069,-2.0612,-2.0688,-2.0687,-2.0687,-2.0687,-2.0686,0,-2.0973,-2.0954,-2.0948,-2.0928,-2.0923,-2.0892,-2.0874,-2.0871,-2.0869,-2.085,-2.0841,-2.0833,-2.0825,-2.0793,-2.0781,-2.0785,-2.0769,-2.0783,-2.0782,-2.0779,-2.0708,-2.0704,-2.0796,-2.0796,-2.0796,-2.0796,-2.0796,-2.0796,-2.1016,-2.1025,-2.1004,-2.1004,-2.0986,-2.0982,-2.0974,-2.0962,-2.0947,-2.0941,-2.0933,-2.0913,-2.0889,-2.0875,-2.0866,-2.0857,-2.0855,-2.0874,-2.086,-2.0794,-2.0783,-2.0773,-2.077,-2.0874,-2.0874,-2.093,-2.0931,-2.0931]},{"header":{"parameterUnit":"m.s-1","parameterCategory":1,"la1":30.2991,"la2":30.254,"lo1":-89.0895,"lo2":-89.0444,"dy":0.0017,"dx":0.0017,"nx":28,"ny":28,"refTime":"2025-04-23T03:00:00:Z","depth":0,"parameterNumber":3,"parameterNumberName":"V-component_of_WINDS"},"data":[0,0,0,0,0,0,0,0,0,0,0,0,0,0,0,0,0,0,0,0,0,0,0,0,0,0,0,0,0,0,0,0,0,0,0,0,0,0,0,0,0,0,0,0,0,0,0,0,0,0,0,0,0,0,0,0,0,0,2.5106,2.5106,0,2.5137,2.5138,2.5138,2.5166,2.5167,2.5167,2.5167,2.5197,2.5198,2.5198,0,0,0,0,0,0,0,0,0,0,0,0,0,2.5068,2.5068,2.5106,2.5106,2.5106,2.5137,2.5138,2.5138,2.5166,2.5167,2.5167,2.5167,2.5197,2.5198,2.5198,0,0,0,0,0,0,0,0,0,0,0,0,0,2.509,2.5068,2.5106,2.5124,2.5126,2.5137,2.5138,2.5138,2.5166,2.5167,2.5167,2.5168,2.5197,2.5198,2.5198,2.5193,0,0,2.52,2.5201,0,0,0,0,0,0,0,0,2.5089,2.5092,2.5121,2.5123,2.5125,2.5148,2.5135,2.5156,2.5166,2.5151,2.5167,2.5168,2.518,2.5182,2.5187,2.5194,2.5195,2.5201,2.5201,2.5201,2.5202,0,0,0,0,0,0,0,2.5087,2.509,2.5118,2.5121,2.5124,2.513,2.5134,2.514,2.5162,2.5152,2.5154,2.5158,2.5182,2.5186,2.5188,2.5196,2.5201,2.5201,2.5202,2.5202,2.5201,2.52,0,0,0,0,0,0,2.5083,2.5089,2.5117,2.5119,2.5108,2.5131,2.5135,2.514,2.5162,2.5166,2.5157,2.5159,2.5185,2.5187,2.5189,2.5185,2.5201,2.5202,2.5202,2.5201,2.5201,2.52,0,0,0,0,0,0,2.5082,2.5085,2.5116,2.5105,2.5109,2.5131,2.5137,2.5141,2.5146,2.5166,2.517,2.5158,2.5185,2.5188,2.5192,2.5186,2.5202,2.5203,2.5202,2.5201,2.5201,2.5176,0,0,0,0,0,0,2.5081,2.5085,2.5083,2.5104,2.5109,2.5118,2.5136,2.5141,2.5147,2.515,2.5168,2.5172,2.5186,2.5191,2.5193,2.5188,2.5204,2.5202,2.5202,2.5201,2.5177,2.5174,2.5172,0,0,0,0,0,2.508,2.5074,2.5083,2.5086,2.5108,2.5118,2.5121,2.5138,2.5147,2.5145,2.5159,2.5171,2.5187,2.5191,2.5193,2.5188,2.5203,2.5202,2.5201,2.5178,2.5175,2.5172,0,0,0,0,0,0,2.505,2.5077,2.5087,2.5089,2.5101,2.5123,2.5121,2.5134,2.5143,2.5145,2.5165,2.5169,2.5171,2.518,2.5184,2.5185,2.5197,2.5196,2.5179,2.5175,2.5173,2.517,2.5204,0,0,0,0,0,2.5044,2.5051,2.5074,2.5073,2.5079,2.5099,2.5104,2.5116,2.5129,2.5134,2.5148,2.516,2.5168,2.5172,2.518,2.5179,2.5183,2.5177,2.5174,2.5172,2.5171,2.5171,2.5169,2.5197,2.5197,2.5197,0,0,2.5031,2.5047,2.505,2.5067,2.5078,2.5084,2.5103,2.5108,2.5113,2.5135,2.514,2.515,2.5165,2.5166,2.5167,2.5174,2.5164,2.517,2.5168,2.5169,2.517,2.5167,2.5165,2.5196,2.5196,2.5196,0,0,2.5011,2.5023,2.5024,2.5036,2.5053,2.5066,2.5067,2.5087,2.5095,2.5101,2.5118,2.5123,2.5136,2.5146,2.5152,2.5138,2.515,2.514,2.5125,2.5126,2.5123,2.5122,2.5116,2.5114,2.5139,2.5139,2.5139,0,2.4992,2.5003,2.5023,2.5028,2.5035,2.5057,2.5058,2.5068,2.5086,2.5091,2.5098,2.5115,2.5126,2.5131,2.5127,2.5132,2.5133,2.5137,2.5122,2.5121,2.5119,2.5115,2.5113,2.5137,2.5137,2.5138,2.5138,0,2.498,2.4987,2.4985,2.5004,2.5011,2.5014,2.5034,2.5039,2.5052,2.5065,2.507,2.5085,2.5097,2.5099,2.511,2.5105,2.5108,2.5119,2.5131,2.5115,2.5111,2.5109,2.5135,2.5136,2.5136,2.5137,0,0,2.494,2.4972,2.4971,2.498,2.5001,2.5007,2.5011,2.5024,2.5027,2.504,2.5043,2.5054,2.5065,2.5072,2.5085,2.5085,2.5073,2.5096,2.5097,2.5091,2.5069,2.5061,2.5058,2.5082,2.5081,2.5081,2.5068,0,2.4924,2.4933,2.4952,2.4955,2.4962,2.4984,2.4988,2.5001,2.5013,2.502,2.5034,2.5042,2.5054,2.5059,2.5061,2.5074,2.5069,2.5076,2.5085,2.5085,2.5081,2.5056,2.5048,2.5034,2.5066,2.5066,2.5066,0,2.4905,2.4917,2.4922,2.4944,2.4947,2.495,2.4964,2.4971,2.4986,2.4995,2.5005,2.5019,2.5025,2.5036,2.5044,2.5048,2.5053,2.5061,2.506,2.5062,2.5074,2.5057,2.503,2.5028,2.5063,2.5064,2.5064,0,2.4876,2.4894,2.4899,2.4906,2.4932,2.4934,2.4944,2.496,2.4967,2.4979,2.4984,2.4996,2.5002,2.5011,2.5028,2.5035,2.5034,2.5047,2.5041,2.5041,2.5039,2.5039,2.5013,2.5043,2.5043,2.5043,2.5043,0,2.4855,2.4857,2.4887,2.489,2.4893,2.4915,2.4916,2.4929,2.4943,2.4949,2.4968,2.4973,2.4996,2.5003,2.5017,2.5021,2.5024,2.5031,2.5035,2.5029,2.5028,2.5033,2.5034,2.5042,2.5043,2.5043,2.5043,0,2.4823,2.4843,2.4851,2.4875,2.4881,2.4882,2.4903,2.4906,2.4921,2.4928,2.493,2.4952,2.4962,2.4981,2.4995,2.5005,2.5006,2.5012,2.5001,2.5003,2.4996,2.4997,2.4972,2.497,2.5001,2.5001,2.5,0,2.4808,2.4811,2.4836,2.4842,2.4852,2.4861,2.4868,2.489,2.4897,2.4916,2.4917,2.4929,2.4939,2.4954,2.4971,2.4982,2.4989,2.4979,2.499,2.4985,2.4989,2.4988,2.4989,2.4976,2.4976,2.4976,2.4975,0,2.478,2.4791,2.4801,2.4816,2.4825,2.4837,2.485,2.4853,2.4878,2.4885,2.4896,2.4904,2.492,2.4931,2.4945,2.4956,2.4969,2.4972,2.4971,2.4966,2.4959,2.4963,2.4994,2.4972,2.4973,2.4973,2.4973,2.4973,2.4757,2.476,2.4779,2.479,2.4803,2.4815,2.482,2.4836,2.4845,2.4861,2.4873,2.4883,2.4899,2.492,2.4929,2.4937,2.4944,2.4943,2.4942,2.4942,2.494,2.4958,2.494,2.494,2.494,2.494,2.494,0,2.4729,2.4743,2.4754,2.4772,2.4781,2.4795,2.4811,2.4817,2.4826,2.4841,2.4851,2.4864,2.4875,2.4894,2.4906,2.4909,2.4916,2.4912,2.4911,2.4914,2.4933,2.4933,2.4906,2.4906,2.4906,2.4906,2.4906,2.4906,2.4716,2.4723,2.4736,2.4749,2.4762,2.4773,2.4781,2.4792,2.4804,2.4818,2.4828,2.4841,2.4857,2.4871,2.4882,2.4887,2.4891,2.4884,2.4891,2.4909,2.4912,2.4915,2.4915,2.4885,2.4885,2.4871,2.4871,2.4871]}]]